Weather History for Harlan, KY

Change the Weather History Date:

Sunday, February 10, 2013

  Actual Average (KLOZ) Record (KLOZ)
Temperature  
Mean Temperature 44 °F 38 °F  
Max Temperature 57 °F 48 °F 69 °F (1959)
Min Temperature 32 °F 28 °F -7 °F (1979)
Degree Days  
Heating Degree Days 20 27  
Month to date heating degree days 275  
Since 1 July heating degree days 2838  
Cooling Degree Days 0 0  
Month to date cooling degree days 0  
Year to date cooling degree days 0  
Moisture  
Dew Point 25 °F    
Average Humidity 50    
Maximum Humidity 81    
Minimum Humidity 18    
Precipitation  
Precipitation 0.00 in 0.13 in 1.42 in (1960)
Month to date precipitation 1.29  
Year to date precipitation 4.83  
Sea Level Pressure  
Sea Level Pressure 30.13 in    
Wind  
Wind Speed 4 mph (ESE)    
Max Wind Speed 12 mph    
Max Gust Speed 22 mph    
Visibility 10 miles    
Events      
T = Trace of Precipitation, MM = Missing Value Source: NWS Daily Summary

Daily Weather History Graph

Daily Weather History Graph

Search for Another Location

Airport:

Trip Planner

Search our weather history database for the weather conditions in past years. The results will help you decide how hot, cold, wet, or windy it might be!

Date:

Astronomy

Feb. 10, 2013 Rise Set
Actual Time 7:27 AM EST 6:08 PM EST
Civil Twilight 7:00 AM EST 6:35 PM EST
Nautical Twilight 6:29 AM EST 7:06 PM EST
Astronomical Twilight 5:59 AM EST 7:36 PM EST
Moon 7:18 AM EST (2/10) 6:55 PM EST (2/10)
Length of Visible Light 11h 35m
Length of Day
10h 41m
New Moon, 0% of the Moon is Illuminated
Feb 10
New Moon
Feb 17
First Quarter
Feb 25
Full
Mar 4
Last Quarter
Mar 11
New

Hourly Weather History & Observations

Time (EST) Temp. Windchill Dew Point Humidity Pressure Visibility Wind Dir Wind Speed Gust Speed Precip Events Conditions
12:15 AM 32.0 °F 26.4 °F 26.6 °F 80% 30.21 in 10.0 mi ESE 5.8 mph - N/A   Clear
12:35 AM 32.0 °F 27.5 °F 26.6 °F 80% 30.21 in 10.0 mi ENE 4.6 mph - N/A   Clear
12:55 AM 32.0 °F 28.7 °F 26.6 °F 80% 30.21 in 10.0 mi NE 3.5 mph - N/A   Clear
1:15 AM 32.0 °F 28.7 °F 26.6 °F 80% 30.21 in 10.0 mi ENE 3.5 mph - N/A   Clear
1:35 AM 35.6 °F 32.8 °F 23.0 °F 60% 30.21 in 10.0 mi ENE 3.5 mph - N/A   Clear
1:55 AM 32.0 °F 27.5 °F 26.6 °F 80% 30.21 in 10.0 mi ENE 4.6 mph - N/A   Clear
2:15 AM 33.8 °F 30.8 °F 26.6 °F 75% 30.21 in 10.0 mi ENE 3.5 mph - N/A   Clear
2:35 AM 35.6 °F 31.7 °F 23.0 °F 60% 30.21 in 10.0 mi ESE 4.6 mph - N/A   Clear
2:55 AM 39.2 °F - 21.2 °F 49% 30.21 in 10.0 mi Calm Calm - N/A   Clear
3:15 AM 39.2 °F - 23.0 °F 52% 30.20 in 10.0 mi Calm Calm - N/A   Clear
3:35 AM 39.2 °F - 23.0 °F 52% 30.21 in 10.0 mi Calm Calm - N/A   Scattered Clouds
3:55 AM 39.2 °F - 23.0 °F 52% 30.20 in 10.0 mi Calm Calm - N/A   Scattered Clouds
4:15 AM 42.8 °F 41.1 °F 21.2 °F 42% 30.20 in 10.0 mi East 3.5 mph - N/A   Scattered Clouds
4:35 AM 41.0 °F 39.0 °F 24.8 °F 53% 30.19 in 10.0 mi ESE 3.5 mph - N/A   Scattered Clouds
4:55 AM 42.8 °F 41.1 °F 19.4 °F 39% 30.19 in 10.0 mi ESE 3.5 mph - N/A   Scattered Clouds
5:15 AM 44.6 °F 42.2 °F 19.4 °F 37% 30.20 in 10.0 mi NNE 4.6 mph - N/A   Scattered Clouds
5:35 AM 44.6 °F 43.1 °F 19.4 °F 37% 30.21 in 10.0 mi NE 3.5 mph - N/A   Mostly Cloudy
5:55 AM 44.6 °F 43.1 °F 19.4 °F 37% 30.21 in 10.0 mi East 3.5 mph - N/A   Scattered Clouds
6:15 AM 44.6 °F - 19.4 °F 37% 30.22 in 10.0 mi Calm Calm - N/A   Clear
6:35 AM 46.4 °F - 19.4 °F 34% 30.22 in 10.0 mi Calm Calm - N/A   Clear
6:55 AM 44.6 °F - 19.4 °F 37% 30.22 in 10.0 mi Calm Calm - N/A   Mostly Cloudy
7:15 AM 44.6 °F 41.4 °F 21.2 °F 39% 30.21 in 10.0 mi East 5.8 mph - N/A   Mostly Cloudy
7:35 AM 44.6 °F 41.4 °F 21.2 °F 39% 30.21 in 10.0 mi ENE 5.8 mph - N/A   Mostly Cloudy
7:55 AM 46.4 °F 42.9 °F 19.4 °F 34% 30.21 in 10.0 mi SE 6.9 mph - N/A   Scattered Clouds
8:15 AM 46.4 °F 43.5 °F 19.4 °F 34% 30.22 in 10.0 mi ESE 5.8 mph - N/A   Scattered Clouds
8:35 AM 46.4 °F 45.2 °F 19.4 °F 34% 30.23 in 10.0 mi East 3.5 mph - N/A   Clear
8:55 AM 46.4 °F 43.5 °F 19.4 °F 34% 30.22 in 10.0 mi East 5.8 mph - N/A   Scattered Clouds
9:15 AM 48.2 °F - 19.4 °F 32% 30.20 in 10.0 mi ESE 8.1 mph - N/A   Scattered Clouds
9:35 AM 50.0 °F - 17.6 °F 28% 30.20 in 10.0 mi East 5.8 mph - N/A   Clear
9:55 AM 50.0 °F - 17.6 °F 28% 30.21 in 10.0 mi SE 4.6 mph - N/A   Clear
10:15 AM 50.0 °F - 17.6 °F 28% 30.21 in 10.0 mi East 5.8 mph - N/A   Clear
10:35 AM 51.8 °F - 17.6 °F 26% 30.20 in 10.0 mi NE 5.8 mph 17.3 mph N/A   Clear
10:55 AM 51.8 °F - 17.6 °F 26% 30.20 in 10.0 mi North 6.9 mph - N/A   Scattered Clouds
11:15 AM 51.8 °F - 17.6 °F 26% 30.18 in 10.0 mi ENE 6.9 mph - N/A   Mostly Cloudy
11:35 AM 51.8 °F - 17.6 °F 26% 30.18 in 10.0 mi NE 5.8 mph - N/A   Scattered Clouds
11:55 AM 51.8 °F - 17.6 °F 26% 30.16 in 10.0 mi North 4.6 mph - N/A   Scattered Clouds
12:15 PM 51.8 °F - 17.6 °F 26% 30.16 in 10.0 mi SE 9.2 mph - N/A   Mostly Cloudy
12:35 PM 53.6 °F - 19.4 °F 26% 30.14 in 10.0 mi ESE 5.8 mph - N/A   Mostly Cloudy
1:15 PM 53.6 °F - 19.4 °F 26% 30.08 in 10.0 mi SSE 4.6 mph - N/A   Mostly Cloudy
1:35 PM 53.6 °F - 17.6 °F 24% 30.06 in 10.0 mi South 6.9 mph - N/A   Mostly Cloudy
1:55 PM 55.4 °F - 15.8 °F 21% 30.06 in 10.0 mi South 5.8 mph - N/A   Mostly Cloudy
2:15 PM 55.4 °F - 15.8 °F 21% 30.06 in 10.0 mi Calm Calm - N/A   Scattered Clouds
2:35 PM 57.2 °F - 15.8 °F 20% 30.05 in 10.0 mi ESE 6.9 mph - N/A   Scattered Clouds
2:55 PM 57.2 °F - 14.0 °F 18% 30.04 in 10.0 mi SSE 11.5 mph 21.9 mph N/A   Clear
3:15 PM 57.2 °F - 14.0 °F 18% 30.04 in 10.0 mi SE 3.5 mph 18.4 mph N/A   Clear
3:35 PM 55.4 °F - 14.0 °F 20% 30.04 in 10.0 mi SE 5.8 mph - N/A   Scattered Clouds
4:15 PM 55.4 °F - 17.6 °F 23% 30.06 in 10.0 mi South 6.9 mph - N/A   Overcast
4:35 PM 51.8 °F - 23.0 °F 33% 30.06 in 10.0 mi SE 8.1 mph 17.3 mph N/A   Overcast
4:55 PM 50.0 °F - 30.2 °F 47% 30.07 in 10.0 mi East 6.9 mph 17.3 mph N/A   Overcast
5:15 PM 50.0 °F - 30.2 °F 47% 30.08 in 10.0 mi South 5.8 mph - N/A   Overcast
5:35 PM 46.4 °F 45.2 °F 33.8 °F 62% 30.08 in 7.0 mi ENE 3.5 mph - N/A   Overcast
5:55 PM 44.6 °F 43.1 °F 33.8 °F 66% 30.08 in 7.0 mi NNE 3.5 mph - N/A   Overcast
6:15 PM 44.6 °F 42.2 °F 35.6 °F 71% 30.08 in 10.0 mi East 4.6 mph - N/A   Overcast
6:35 PM 44.6 °F 40.7 °F 35.6 °F 71% 30.06 in 10.0 mi East 6.9 mph 17.3 mph N/A   Overcast
6:55 PM 44.6 °F 42.2 °F 35.6 °F 71% 30.04 in 10.0 mi SE 4.6 mph - N/A   Overcast
7:15 PM 44.6 °F 40.7 °F 35.6 °F 71% 30.02 in 10.0 mi SSE 6.9 mph - N/A   Overcast
7:35 PM 44.6 °F 42.2 °F 37.4 °F 76% 30.02 in 10.0 mi SE 4.6 mph 8.1 mph N/A   Overcast
7:55 PM 44.6 °F 43.1 °F 37.4 °F 76% 30.02 in 10.0 mi NE 3.5 mph - N/A   Overcast
8:15 PM 46.4 °F 42.4 °F 39.2 °F 76% 30.03 in 10.0 mi SE 8.1 mph 17.3 mph N/A   Overcast
8:35 PM 46.4 °F 42.9 °F 39.2 °F 76% 30.02 in 10.0 mi WSW 6.9 mph - N/A   Overcast
8:55 PM 46.4 °F 44.3 °F 39.2 °F 76% 30.02 in 10.0 mi SE 4.6 mph - N/A   Overcast
9:15 PM 46.4 °F 43.5 °F 39.2 °F 76% 30.01 in 10.0 mi SE 5.8 mph - N/A   Overcast
9:35 PM 46.4 °F 42.4 °F 39.2 °F 76% 30.01 in 10.0 mi SE 8.1 mph - N/A   Overcast
9:55 PM 46.4 °F 44.3 °F 39.2 °F 76% 30.01 in 10.0 mi ENE 4.6 mph - N/A   Overcast
10:15 PM 46.4 °F 43.5 °F 39.2 °F 76% 29.99 in 10.0 mi East 5.8 mph - N/A   Overcast
10:35 PM 46.4 °F 43.5 °F 39.2 °F 76% 29.99 in 10.0 mi SSE 5.8 mph - N/A   Overcast
10:55 PM 46.4 °F - 41.0 °F 81% 29.99 in 10.0 mi Calm Calm - N/A   Overcast
11:15 PM 46.4 °F 45.2 °F 41.0 °F 81% 29.98 in 10.0 mi ESE 3.5 mph - N/A   Overcast
11:35 PM 46.4 °F 44.3 °F 41.0 °F 81% 29.98 in 10.0 mi ESE 4.6 mph - N/A   Overcast
11:55 PM 48.2 °F - 41.0 °F 76% 29.98 in 10.0 mi Calm Calm - N/A   Overcast